Temp
48 52 53 52 53 53 49 48 49 50 49 55 55 54 59 61 61 61 61 61 62 62 64 64 65 65 66 67 65 66 67 68 67 68 69 69 69 70 71 72 73 74 73 74
46 55 55 52 53 54 53 51 50 50 48 55 56 58 59 61 61 60 61 62 62 62 62 63 64 64 65 65 64 66 65 64 65 66 67 67 68 68 69 70 70 71 71 72
38 49 55 49 50 51 52 54 53 47 51 56 54 56 59 61 62 61 61 60 60 61 61 61 62 63 62 62 62 61 61 61 62 65 65 65 66 67 67 67 68 68 69 69
38 45 38 50 60 57 52 54 55 54 54 56 56 57 60 64 62 61 61 61 61 60 59 59 59 60 60 60 60 60 60 60 61 61 61 63 64 65 64 65 65 66 68 69
38 38 44 54 56 55 52 51 56 54 56 57 59 61 59 65 63 60 60 61 60 61 60 59 58 59 58 58 59 59 59 58 59 60 60 60 61 62 63 65 65 66 67 68
36 36 35 45 58 62 57 45 56 58 56 57 60 51 52 60 60 60 60 60 59 61 60 58 59 59 58 57 58 56 58 58 58 59 58 58 59 60 62 63 64 65 65 65
36 35 42 52 56 59 46 46 55 58 57 57 54 54 54 60 60 60 58 58 59 58 57 56 58 58 55 55 54 56 57 57 57 58 58 57 58 59 59 60 61 62 63 63
33 34 36 52 55 49 51 52 55 56 56 55 53 55 56 57 55 55 54 54 55 54 53 54 54 54 52 50 52 54 54 54 54 54 57 57 56 56 56 56 57 58 59 62
39 38 47 50 50 52 52 54 54 53 53 54 54 54 55 53 53 53 53 52 53 52 50 51 52 52 50 50 52 52 52 51 52 53 54 54 54 54 55 54 55 56 58 58
42 45 47 51 55 55 54 53 54 54 55 56 53 54 53 53 54 54 53 51 51 50 49 48 49 50 49 50 51 50 49 49 51 51 51 52 53 54 53 53 53 54 54 54
41 45 49 52 52 53 54 54 55 56 57 56 55 55 54 53 54 55 53 53 52 50 49 47 48 47 49 49 49 48 48 49 49 49 49 50 51 51 53 53 51 53 53 53
39 46 47 48 51 55 53 53 54 55 54 57 57 58 58 56 56 55 53 52 51 49 49 48 48 47 47 48 48 47 47 47 48 48 48 49 49 50 49 48 47 45 45 48
45 47 48 51 53 54 55 55 55 55 57 55 55 56 56 55 55 55 53 52 51 50 50 47 47 47 48 48 48 47 45 46 47 48 48 48 48 48 47 49 48 46 45 45
49 51 49 52 50 53 55 56 58 57 56 58 57 55 55 54 52 53 53 53 52 50 48 48 47 47 48 48 47 47 47 47 46 46 47 47 47 47 48 47 46 48 48 46
50 50 50 50 51 52 54 55 54 54 54 54 54 54 53 51 51 52 52 52 52 50 48 48 47 47 47 48 48 47 47 47 46 47 47 47 47 47 47 46 46 46 48 47
49 49 50 49 50 51 52 52 51 51 52 52 52 52 53 55 54 53 50 49 49 49 48 48 48 48 48 48 47 47 48 49 47 46 46 46 46 45 45 44 44 44 45 45
47 44 46 45 49 49 50 52 52 52 52 52 51 51 52 51 50 50 50 51 52 50 49 49 49 48 48 48 47 47 47 49 48 46 46 45 45 45 44 44 44 44 44 45
50 49 49 49 49 49 50 52 52 52 52 53 53 52 51 52 51 50 50 51 50 50 49 49 49 49 48 48 48 47 47 47 46 46 46 46 45 45 45 44 44 44 44 45
51 52 51 51 51 50 49 50 51 51 52 52 52 51 51 50 50 50 49 48 48 48 51 50 53 52 49 48 48 47 47 46 46 46 46 45 45 45 45 45 44 45 45 45
52 52 52 52 52 51 50 50 50 50 50 50 51 51 50 50 51 50 51 51 53 54 53 49 53 51 49 49 53 47 47 47 46 46 45 45 45 45 45 42 43 44 44 44
52 53 52 51 52 52 52 51 50 48 49 48 47 47 48 49 49 48 47 46 49 50 50 52 49 51 49 49 55 47 47 46 46 46 45 46 45 45 45 44 44 43 43 43
50 49 52 52 52 50 49 48 48 47 47 46 46 46 46 45 47 47 48 48 49 52 50 49 49 50 49 53 49 47 47 46 45 45 44 43 43 43 44 43 43 43 43 43
48 49 52 52 49 47 46 46 46 46 45 45 45 45 44 46 45 47 47 50 49 51 52 51 51 52 52 50 47 47 46 45 45 45 44 44 44 43 43 43 43 42 42 41
46 46 45 45 45 44 44 45 44 45 44 45 45 45 45 44 45 46 47 49 50 50 51 51 51 51 52 50 47 45 45 45 45 45 44 42 44 43 43 43 42 42 41 40
45 44 44 44 43 42 42 43 43 43 43 43 44 45 45 45 46 47 47 49 49 50 50 50 51 51 52 49 47 46 45 45 45 45 44 43 44 44 44 43 42 42 41 41
43 43 43 43 44 43 43 42 42 43 43 44 44 46 47 48 48 48 48 48 49 49 51 48 50 51 50 48 47 47 46 46 45 44 44 44 44 44 44 44 43 42 42 42
43 42 43 43 43 44 44 44 45 45 45 46 45 47 49 49 49 49 49 51 50 49 49 49 49 49 49 49 48 47 47 48 45 47 46 46 45 44 44 44 43 43 42 41
MSLP
1013.31 1013.02 1012.77 1012.57 1012.32 1011.78 1011.89 1012.18 1012.64 1013.07 1013.51 1013.56 1014.22 1014.82 1015.36 1015.91 1016.46 1017.03 1017.55 1017.81 1017.77 1017.76 1017.66 1017.77 1017.71 1018.18 1019.26 1019.94 1019.69 1019.90 1020.79 1020.81 1021.29 1021.26 1021.35 1021.25 1021.13 1020.97 1020.89 1020.96 1021.19 1021.37 1021.48 1021.58
1014.12 1013.16 1012.85 1012.44 1012.50 1012.06 1012.18 1012.37 1012.55 1012.89 1013.42 1013.33 1014.51 1015.34 1015.74 1016.06 1016.51 1017.22 1017.87 1018.22 1018.29 1018.41 1018.34 1018.16 1018.38 1018.79 1019.03 1020.01 1020.00 1020.23 1020.57 1020.57 1021.30 1021.55 1021.86 1021.76 1021.82 1021.61 1021.28 1021.50 1021.71 1021.63 1021.69 1021.66
1015.08 1014.01 1012.91 1012.63 1012.67 1012.55 1012.52 1012.55 1012.83 1013.26 1013.08 1013.36 1014.51 1015.19 1015.52 1016.08 1016.78 1017.48 1018.10 1018.59 1018.84 1018.96 1019.04 1018.92 1019.22 1019.81 1020.15 1020.25 1020.62 1020.36 1021.06 1021.61 1022.15 1022.37 1022.50 1022.36 1022.46 1022.38 1021.88 1022.05 1022.15 1022.14 1022.12 1021.98
1016.29 1015.05 1014.31 1013.05 1012.24 1012.48 1013.08 1013.01 1013.24 1013.23 1013.26 1014.00 1014.60 1015.61 1015.80 1016.38 1017.21 1017.93 1018.62 1018.92 1019.22 1019.57 1019.88 1020.04 1020.22 1020.68 1021.15 1021.81 1021.91 1022.07 1022.53 1022.81 1022.94 1022.83 1022.79 1022.72 1022.84 1023.01 1022.66 1022.66 1022.19 1022.45 1022.45 1022.39
1017.14 1016.39 1015.10 1013.14 1012.84 1013.07 1013.20 1013.66 1013.46 1013.65 1013.94 1014.43 1015.20 1015.87 1016.76 1017.08 1017.78 1018.70 1019.19 1019.55 1019.85 1020.35 1020.90 1021.15 1021.50 1021.88 1022.01 1022.77 1023.08 1023.22 1023.68 1023.69 1023.72 1023.59 1023.54 1023.52 1023.38 1023.07 1022.75 1023.23 1022.63 1022.62 1022.53 1022.44
1017.84 1017.15 1016.00 1014.59 1013.63 1013.32 1012.81 1013.57 1013.50 1013.91 1014.41 1014.84 1015.55 1016.59 1017.34 1017.63 1018.30 1019.20 1019.85 1020.33 1020.84 1020.95 1021.68 1022.14 1022.76 1022.82 1023.23 1023.82 1023.94 1024.11 1024.17 1024.20 1024.03 1023.97 1023.98 1024.01 1023.87 1023.64 1023.52 1023.40 1022.93 1022.78 1022.77 1022.64
1018.40 1017.66 1016.29 1014.87 1014.20 1013.52 1013.97 1014.55 1014.16 1014.72 1014.66 1015.27 1016.07 1016.47 1017.41 1018.03 1019.03 1020.00 1020.41 1020.71 1021.34 1021.97 1022.25 1022.96 1023.21 1023.22 1023.90 1024.35 1024.60 1024.60 1024.53 1024.64 1024.59 1024.40 1024.37 1024.27 1024.06 1023.92 1023.75 1023.57 1023.25 1023.32 1023.13 1023.31
1019.18 1018.26 1016.84 1015.42 1014.45 1014.72 1014.83 1014.64 1014.45 1014.98 1015.58 1016.05 1016.69 1017.16 1017.86 1018.83 1019.66 1020.42 1021.11 1021.72 1022.10 1022.48 1023.16 1023.54 1023.63 1023.63 1024.44 1024.90 1025.24 1025.15 1025.07 1025.23 1025.17 1025.18 1024.82 1024.60 1024.34 1024.43 1024.23 1023.92 1024.19 1023.96 1024.01 1023.82
1018.74 1018.04 1016.79 1015.97 1015.49 1015.05 1014.88 1014.87 1015.33 1015.44 1016.13 1016.65 1017.11 1018.29 1018.96 1019.73 1020.55 1021.17 1021.75 1022.16 1022.60 1022.90 1023.61 1023.91 1024.12 1024.25 1024.85 1025.54 1025.45 1025.33 1025.37 1025.50 1025.55 1025.52 1025.31 1025.16 1024.99 1025.17 1025.03 1025.15 1025.18 1024.94 1024.75 1024.57
1018.35 1017.59 1016.98 1016.42 1015.77 1015.35 1015.24 1015.41 1015.63 1016.13 1016.71 1017.34 1018.18 1018.83 1019.53 1020.12 1020.96 1021.68 1022.33 1022.76 1023.30 1023.70 1024.26 1024.65 1024.72 1024.88 1025.15 1025.61 1025.58 1025.62 1025.74 1025.97 1026.04 1025.84 1025.76 1025.64 1025.66 1025.68 1025.62 1025.75 1025.80 1025.65 1025.66 1025.35
1018.60 1017.75 1017.19 1016.74 1016.41 1016.18 1016.10 1016.09 1016.17 1016.76 1016.87 1017.27 1018.39 1019.16 1019.87 1020.58 1021.21 1021.74 1022.51 1023.09 1023.46 1023.85 1024.45 1025.06 1025.35 1025.59 1025.66 1025.77 1025.83 1026.07 1026.27 1026.46 1026.48 1026.47 1026.39 1026.38 1026.36 1026.48 1026.52 1026.62 1026.60 1026.53 1026.47 1026.28
1018.30 1017.50 1017.26 1017.00 1016.78 1016.53 1016.64 1016.60 1016.63 1016.82 1017.55 1018.09 1018.45 1018.35 1018.73 1019.52 1020.20 1021.16 1022.09 1022.77 1023.45 1024.03 1024.49 1024.97 1025.31 1025.64 1025.87 1025.89 1026.11 1026.36 1026.51 1026.71 1026.94 1027.13 1027.27 1027.28 1027.17 1027.02 1026.87 1026.84 1026.88 1027.01 1026.93 1026.98
1018.02 1017.59 1017.51 1017.18 1017.05 1016.87 1016.88 1016.96 1017.22 1017.28 1017.33 1017.96 1018.53 1018.85 1019.30 1019.90 1020.54 1021.24 1022.02 1022.48 1023.02 1023.55 1024.09 1024.63 1025.04 1025.47 1025.77 1025.89 1026.09 1026.39 1026.65 1026.86 1027.02 1027.17 1027.32 1027.33 1027.41 1027.32 1027.32 1027.16 1026.94 1027.06 1027.18 1026.93
1017.62 1017.53 1017.61 1017.43 1017.52 1017.28 1017.18 1017.18 1017.31 1017.57 1017.90 1017.88 1018.12 1018.83 1019.26 1019.97 1020.80 1021.19 1021.54 1021.87 1022.65 1023.35 1023.94 1024.40 1024.81 1025.21 1025.57 1025.81 1026.10 1026.41 1026.61 1026.89 1027.21 1027.50 1027.60 1027.66 1027.63 1027.63 1027.66 1027.57 1027.46 1027.34 1027.05 1026.97
1017.40 1017.24 1017.23 1017.44 1017.60 1017.58 1017.50 1017.41 1017.62 1017.88 1018.08 1018.51 1018.75 1018.81 1019.30 1020.00 1020.47 1020.67 1021.29 1021.88 1022.62 1023.43 1024.04 1024.39 1024.75 1025.15 1025.43 1025.68 1025.98 1026.29 1026.65 1026.97 1027.22 1027.48 1027.68 1027.77 1027.96 1028.11 1028.05 1027.94 1027.87 1027.68 1027.36 1027.09
1017.53 1017.53 1017.50 1017.54 1017.60 1017.63 1017.68 1017.76 1017.88 1017.99 1018.03 1018.29 1018.67 1019.22 1019.27 1019.22 1019.59 1020.34 1021.04 1021.74 1022.53 1022.91 1023.31 1023.84 1024.29 1024.84 1025.41 1025.79 1026.10 1026.38 1026.60 1026.83 1027.12 1027.38 1027.61 1027.78 1027.95 1028.06 1028.14 1028.13 1028.00 1027.84 1027.69 1027.61
1017.57 1017.71 1017.73 1017.80 1017.86 1017.90 1017.98 1018.09 1018.16 1018.11 1018.09 1018.19 1018.32 1018.74 1019.42 1020.14 1020.71 1021.20 1021.67 1021.81 1021.88 1022.39 1022.83 1023.05 1023.61 1024.39 1024.95 1025.42 1025.87 1026.37 1026.69 1026.88 1027.17 1027.56 1027.74 1027.85 1027.98 1028.03 1028.11 1028.09 1028.06 1028.01 1027.95 1027.85
1017.06 1017.23 1017.44 1017.58 1017.79 1018.01 1018.14 1018.15 1018.29 1018.35 1018.36 1018.28 1018.30 1018.74 1019.13 1019.43 1020.16 1020.82 1021.44 1021.94 1022.40 1022.64 1023.00 1023.44 1023.46 1024.26 1024.82 1025.06 1025.44 1025.97 1026.40 1026.84 1027.14 1027.28 1027.55 1027.71 1027.86 1028.00 1028.05 1028.09 1028.08 1027.99 1027.88 1027.73
1017.00 1017.20 1017.47 1017.65 1017.72 1018.01 1018.21 1018.29 1018.34 1018.46 1018.50 1018.70 1018.97 1018.95 1018.92 1019.33 1019.71 1020.50 1021.41 1022.01 1022.31 1022.64 1022.67 1023.38 1023.83 1024.18 1024.34 1024.65 1025.13 1025.54 1026.01 1026.40 1026.79 1026.97 1027.12 1027.26 1027.38 1027.45 1027.47 1027.43 1027.35 1027.33 1027.28 1027.15
1016.85 1016.93 1017.20 1017.52 1017.78 1017.84 1018.10 1018.39 1018.47 1018.65 1018.78 1019.00 1019.13 1019.27 1019.43 1019.55 1019.65 1020.06 1020.32 1020.64 1020.91 1021.07 1021.70 1022.85 1023.46 1024.01 1024.29 1024.51 1024.94 1025.31 1025.66 1025.98 1026.26 1026.56 1026.82 1026.84 1026.88 1026.98 1027.02 1027.09 1027.02 1026.86 1026.77 1026.66
1016.63 1016.87 1017.10 1017.52 1017.74 1017.88 1017.94 1018.23 1018.53 1018.69 1018.92 1019.29 1019.58 1019.60 1019.63 1019.76 1019.96 1020.23 1020.60 1020.86 1020.57 1020.82 1021.50 1022.37 1022.74 1023.40 1024.13 1024.22 1024.75 1025.12 1025.36 1025.68 1025.88 1025.97 1026.21 1026.36 1026.51 1026.60 1026.64 1026.60 1026.63 1026.66 1026.57 1026.48
1016.70 1016.95 1017.23 1017.55 1017.90 1018.24 1018.38 1018.59 1018.79 1018.97 1019.19 1019.34 1019.44 1019.60 1019.83 1019.89 1019.94 1020.07 1020.13 1020.26 1020.26 1020.70 1021.23 1021.66 1022.17 1023.12 1023.92 1023.80 1024.13 1024.92 1025.17 1025.26 1025.45 1025.73 1025.96 1026.18 1026.32 1026.30 1026.31 1026.27 1026.21 1026.21 1026.21 1026.08
1017.07 1017.41 1017.67 1018.08 1018.34 1018.60 1018.78 1018.85 1018.93 1019.01 1019.08 1019.12 1019.18 1019.25 1019.43 1019.40 1019.57 1019.96 1020.04 1019.71 1020.09 1020.35 1020.65 1021.01 1021.29 1021.89 1022.98 1023.30 1023.53 1024.26 1024.73 1024.85 1025.02 1025.20 1025.34 1025.51 1025.64 1025.79 1025.76 1025.64 1025.61 1025.65 1025.61 1025.53
1017.47 1017.89 1018.24 1018.55 1018.76 1018.95 1019.11 1019.11 1019.13 1019.08 1019.01 1018.80 1018.66 1018.70 1018.91 1019.14 1019.29 1019.37 1019.49 1019.50 1019.53 1019.88 1020.30 1020.73 1020.96 1021.45 1022.09 1022.59 1023.17 1023.70 1023.97 1024.17 1024.51 1024.61 1024.69 1024.84 1025.06 1025.12 1025.06 1025.04 1025.03 1025.00 1024.89 1025.00
1017.78 1018.24 1018.61 1018.86 1019.02 1019.17 1019.21 1019.19 1019.13 1019.03 1018.85 1018.61 1018.40 1018.34 1018.46 1018.54 1018.57 1018.68 1018.84 1019.09 1019.28 1019.55 1019.99 1020.39 1020.77 1021.21 1021.55 1021.84 1022.40 1022.92 1023.14 1023.57 1023.80 1023.87 1024.08 1024.28 1024.29 1024.22 1024.29 1024.22 1024.03 1024.07 1024.09 1023.93
1017.88 1018.32 1018.70 1018.81 1018.98 1019.13 1019.13 1019.06 1019.15 1019.19 1019.12 1018.99 1018.69 1018.45 1018.30 1018.20 1018.19 1018.24 1018.59 1019.00 1019.45 1019.62 1019.68 1020.30 1020.60 1020.91 1021.12 1021.39 1021.74 1022.08 1022.51 1022.80 1022.99 1023.11 1023.36 1023.35 1023.30 1023.33 1023.21 1023.13 1023.11 1023.11 1022.95 1022.79
1018.01 1018.32 1018.67 1018.82 1018.84 1018.89 1018.95 1019.09 1019.05 1019.06 1019.13 1019.02 1018.98 1018.94 1018.40 1018.17 1018.30 1018.53 1018.79 1018.99 1019.30 1019.53 1019.80 1020.10 1020.30 1020.36 1020.58 1020.85 1021.20 1021.51 1021.72 1021.89 1022.07 1022.25 1022.24 1022.23 1022.23 1022.17 1022.12 1021.99 1021.82 1021.74 1021.86 1021.98
Wind_Speed
3 3 2 1 6 8 5 3 5 8 10 18 14 13 12 9 10 8 6 5 3 1 4 10 9 9 6 7 6 6 3 7 6 6 6 5 3 3 4 4 2 3 3 4
1 1 5 4 6 7 5 3 3 8 0 8 8 7 10 11 11 10 8 7 6 5 5 7 9 9 8 8 6 5 7 10 7 6 6 7 5 5 7 7 6 6 6 4
3 4 3 5 5 4 5 1 5 5 5 14 10 11 11 10 11 11 11 10 9 8 8 10 11 8 9 9 8 12 10 9 8 5 6 6 6 5 6 6 5 6 6 7
2 2 2 7 2 8 4 4 6 3 7 9 11 6 8 9 11 11 10 11 11 9 10 11 12 13 12 10 10 10 9 8 6 6 7 6 5 4 5 3 6 4 5 4
4 1 5 7 5 2 5 5 3 6 9 11 10 12 6 9 9 7 7 8 9 11 12 12 12 11 12 10 9 10 8 7 6 5 6 5 6 5 5 3 3 3 3 5
2 3 5 4 3 3 5 7 4 7 10 15 15 7 4 11 12 11 10 10 8 12 11 11 8 10 11 8 8 8 6 5 5 5 6 5 4 4 2 2 4 4 4 4
2 2 6 4 8 5 5 7 3 8 13 14 10 4 7 11 10 7 6 10 10 8 11 8 7 10 10 8 8 6 6 6 6 5 6 5 5 4 5 6 6 6 7 5
3 2 3 5 6 1 6 2 4 4 3 5 6 11 14 11 11 10 10 9 8 10 8 6 6 10 9 9 4 5 7 7 7 6 6 6 8 7 8 8 8 7 6 6
7 7 4 5 4 4 2 2 1 6 5 8 13 10 11 9 10 8 8 7 6 10 8 6 6 8 10 3 5 6 7 7 7 7 7 7 8 7 6 7 6 6 6 6
3 2 2 5 5 6 4 1 5 7 10 11 13 12 11 10 9 8 7 8 7 9 8 6 5 7 7 5 5 7 8 7 6 7 7 8 6 6 7 6 6 7 7 7
2 4 1 0 2 3 3 5 11 8 8 15 15 13 11 8 7 8 7 7 7 8 8 7 6 6 5 5 6 7 6 6 6 6 7 6 7 6 6 4 4 4 5 5
6 4 4 3 6 2 2 2 7 10 7 8 10 16 19 15 12 12 11 7 7 6 8 7 6 5 5 5 6 6 6 5 5 5 4 5 5 5 7 8 8 7 5 1
1 1 0 2 4 4 1 2 3 6 11 14 7 9 11 10 10 11 9 10 10 10 8 8 7 6 4 5 6 6 6 5 5 5 5 5 5 6 6 6 7 9 9 10
3 4 3 4 2 5 5 3 2 2 2 9 13 8 10 11 8 12 13 12 10 8 8 8 7 6 5 5 5 5 5 9 5 4 4 4 5 5 5 6 6 7 8 10
4 3 4 2 2 1 2 2 2 3 5 3 3 10 11 11 12 14 9 8 9 9 8 8 7 6 5 5 5 6 5 4 4 4 4 5 5 5 5 5 5 6 7 6
3 1 3 2 3 3 2 3 4 0 2 5 6 6 9 12 12 10 9 11 12 12 11 10 8 7 7 6 6 5 4 9 6 4 4 4 4 5 4 5 5 5 6 7
5 2 3 2 2 1 2 1 1 1 1 3 7 9 8 6 5 3 4 7 5 4 8 11 10 9 9 8 7 5 4 5 9 4 4 4 3 3 3 3 4 5 5 6
4 3 3 5 4 3 2 2 2 3 2 2 3 6 7 11 11 8 6 7 2 2 4 4 7 8 8 9 8 6 6 5 4 4 4 3 3 2 1 1 2 3 4 5
7 6 5 6 6 4 3 3 3 2 2 5 3 5 7 8 8 8 7 6 3 1 5 7 13 13 9 10 10 6 6 6 4 3 3 3 1 0 2 2 3 4 5 6
5 5 5 5 4 6 6 3 3 3 3 2 3 5 5 5 6 8 10 14 15 11 7 9 9 8 7 9 14 6 6 6 6 4 3 3 2 2 3 3 4 5 6 8
6 6 5 5 4 4 4 3 5 5 4 4 4 5 5 2 3 5 6 7 9 9 7 13 8 5 5 7 9 6 6 5 5 4 4 3 3 4 4 4 5 5 6 6
4 5 5 5 5 3 3 2 1 2 2 3 5 5 5 6 5 5 6 6 5 17 8 7 7 6 6 11 4 6 6 6 5 4 4 4 5 5 6 5 5 5 6 6
6 5 6 4 2 1 2 3 3 3 4 5 5 5 6 6 5 6 7 6 4 11 8 7 14 19 20 9 7 7 8 7 6 6 6 6 5 6 6 6 6 6 6 6
5 4 4 3 3 2 3 3 3 3 4 6 6 4 4 3 2 4 2 4 9 11 9 7 10 16 18 8 7 6 6 6 6 6 6 6 6 6 6 7 7 7 6 7
6 5 4 3 2 1 2 2 2 3 5 4 3 2 4 3 4 3 4 4 8 7 5 7 11 15 9 7 7 7 7 7 7 6 6 6 7 6 7 7 7 8 8 7
6 5 4 4 3 2 1 1 1 2 3 3 2 1 2 2 2 3 3 4 4 4 6 4 4 6 6 7 7 7 7 7 6 6 7 7 7 7 7 8 8 8 8 7
4 5 4 3 1 2 2 2 2 2 2 1 3 2 1 3 3 3 4 3 3 3 4 5 5 6 5 6 6 6 6 7 8 7 7 7 7 7 8 9 7 7 6 7
Wind_Direction
165 219 233 165 323 327 199 181 155 196 180 195 182 160 157 139 124 121 119 128 126 104 130 128 115 97 109 122 112 96 117 77 60 41 21 19 25 79 85 84 115 199 207 223
219 306 270 111 3 25 54 82 40 127 143 134 124 133 144 144 135 125 119 114 116 109 79 94 105 115 94 135 96 82 71 53 48 44 30 23 19 39 79 75 63 77 65 42
260 326 323 7 1 355 279 214 142 170 223 151 144 157 144 136 133 132 119 111 92 81 92 101 99 97 86 89 84 67 64 56 49 35 56 49 12 22 70 76 80 66 63 63
215 341 137 234 125 99 104 6 339 290 154 146 122 102 108 129 129 124 123 116 104 97 85 76 83 86 90 81 82 77 69 62 48 44 42 39 48 29 46 49 73 69 67 65
125 201 288 318 30 33 107 290 279 147 131 115 114 104 77 122 116 105 107 100 106 106 101 95 91 88 82 78 75 78 69 69 55 53 57 47 38 17 37 6 59 49 66 72
96 125 203 259 304 288 153 317 161 160 141 140 144 152 157 127 121 121 121 111 106 111 105 98 100 105 99 93 87 78 73 61 60 59 52 41 32 36 360 352 30 34 47 36
122 207 290 286 303 305 114 240 148 180 159 156 166 165 141 130 114 118 106 113 115 100 105 102 107 104 89 89 76 75 74 67 55 50 65 37 41 33 26 33 47 32 32 33
84 93 267 357 320 210 225 201 150 132 145 120 101 128 136 132 123 120 119 108 106 103 96 95 97 98 92 77 65 77 78 69 57 47 56 56 60 43 38 38 39 36 30 24
163 211 251 282 245 286 271 39 44 118 100 124 125 122 132 121 117 119 124 113 105 109 99 68 78 98 97 85 83 77 68 56 53 59 54 52 58 54 57 45 41 33 32 30
94 267 314 331 323 337 350 123 121 114 122 128 129 131 126 122 122 125 134 129 130 119 109 96 83 88 102 108 92 83 76 59 49 53 46 40 47 47 52 43 36 35 28 22
303 279 278 298 1 344 32 95 105 110 134 140 141 132 118 111 144 160 148 144 145 136 133 133 128 113 114 110 103 91 84 75 63 56 47 43 41 38 47 46 43 41 30 15
217 225 153 252 320 320 143 146 140 131 126 154 172 164 165 177 170 155 162 152 141 143 141 145 137 131 127 117 111 108 94 87 79 74 64 60 54 38 13 26 26 44 45 8
270 180 198 71 39 6 65 186 202 169 163 163 172 169 157 153 164 161 163 161 165 169 159 152 146 140 139 126 117 111 110 102 85 69 61 53 47 47 36 2 11 12 2 9
195 145 85 38 26 9 31 357 201 84 282 189 175 168 167 157 150 167 180 180 162 159 159 162 156 155 156 137 120 115 110 114 107 101 85 69 51 46 39 31 17 7 359 354
204 142 165 164 162 59 43 44 88 180 187 214 214 178 158 163 174 191 173 159 155 157 166 164 159 168 160 147 133 129 123 117 112 102 90 84 78 69 53 42 28 6 353 2
176 60 50 14 342 344 53 76 100 175 203 167 169 188 203 194 189 178 159 154 157 188 180 174 172 168 161 152 141 133 137 139 121 106 93 80 70 65 53 40 22 8 3 353
131 216 177 192 211 279 278 332 212 38 16 183 184 150 124 98 93 142 207 201 187 154 184 177 178 163 163 159 153 151 149 143 141 127 125 119 106 86 70 43 25 9 355 342
183 150 192 168 175 194 250 264 240 223 215 247 128 142 153 159 180 180 174 153 113 122 185 217 156 164 173 168 162 159 158 158 154 148 149 140 129 126 112 48 6 353 346 334
192 208 211 207 183 183 196 217 233 259 224 179 187 187 173 169 150 138 137 133 134 230 234 178 198 184 182 183 168 158 162 163 169 172 175 175 182 275 316 327 338 339 337 339
206 201 202 229 198 186 198 216 221 219 216 193 153 159 179 201 178 174 179 191 199 206 162 176 198 193 192 197 179 171 173 179 183 188 192 207 229 272 300 293 311 329 332 335
197 197 193 200 208 215 216 190 186 217 219 192 217 238 235 226 186 168 178 202 220 162 148 189 174 177 195 183 195 188 186 190 200 200 213 234 260 268 285 302 301 305 309 316
130 125 124 119 109 79 49 35 328 313 252 249 242 242 228 236 222 209 214 208 167 176 156 159 147 177 218 198 184 196 205 206 205 203 220 228 239 254 262 268 274 281 282 290
123 124 112 111 104 79 1 340 311 286 275 260 251 237 215 223 190 199 222 219 182 189 183 182 178 177 213 213 198 201 204 207 214 219 226 229 234 243 254 261 262 265 273 282
123 116 120 104 92 56 304 302 308 280 267 277 266 245 211 195 208 214 229 228 206 199 203 184 185 193 213 199 190 194 202 208 216 222 229 228 241 246 252 256 258 256 255 256
144 133 117 116 94 289 282 308 333 321 322 312 307 229 188 199 184 194 192 190 171 156 166 191 205 201 198 183 187 198 203 210 219 218 221 229 238 240 244 244 247 249 243 243
154 146 149 157 145 152 158 80 69 348 17 17 38 121 142 163 177 157 137 122 146 187 153 188 213 199 196 193 198 203 209 215 217 223 228 235 239 242 249 251 244 234 236 238
128 129 140 126 115 156 153 167 122 116 129 65 74 34 29 45 64 63 111 125 161 177 187 189 203 197 195 199 203 206 211 219 220 228 235 237 238 243 245 239 234 234 233 234